Torna al catalogo

SL-8 R/B

AttivoLEO
NORAD 5847·ROCKET BODY·🇷🇺 Russia

Lanciato Feb 25, 1972 da Plesetsk Cosmodrome

Loading…

Prossimi Passaggi (prossime 24 ore)

TLE

AggiornatoSource: Space-Track

Epoca: Sep 14, 2026, 05:49 UTC

1 05847U 72009B   26257.24282721  .00000051  00000-0  70905-4 0  9993
2 05847  74.0498 180.8517 0029186  76.8594  84.8309 13.79467166745269

Traccia SL-8 R/B in tempo reale con AllMySat

Download on the App Store